TimeAKDT,TemperatureF,Dew PointF,Humidity,Sea Level PressureIn,VisibilityMPH,Wind Direction,Wind SpeedMPH,Gust SpeedMPH,PrecipitationIn,Events,Conditions,WindDirDegrees,DateUTC
12:16 AM,53.6,44.6,72,29.82,10.0,Calm,Calm,-,N/A,,Overcast,0,2013-09-01 08:16:00
12:36 AM,51.8,46.4,82,29.82,10.0,SE,3.5,-,N/A,,Overcast,130,2013-09-01 08:36:00
12:56 AM,51.8,46.4,82,29.82,10.0,Calm,Calm,-,N/A,,Overcast,0,2013-09-01 08:56:00
1:16 AM,51.8,46.4,82,29.82,10.0,Calm,Calm,-,N/A,,Mostly Cloudy,0,2013-09-01 09:16:00
1:36 AM,50.0,46.4,87,29.82,10.0,Calm,Calm,-,N/A,,Mostly Cloudy,0,2013-09-01 09:36:00
1:56 AM,48.2,46.4,93,29.83,10.0,Calm,Calm,-,N/A,,Overcast,0,2013-09-01 09:56:00
2:16 AM,48.2,46.4,93,29.83,10.0,Calm,Calm,-,N/A,,Overcast,0,2013-09-01 10:16:00
2:36 AM,50.0,46.4,87,29.82,10.0,Calm,Calm,-,N/A,,Overcast,0,2013-09-01 10:36:00
2:56 AM,50.0,46.4,87,29.82,10.0,ESE,3.5,-,N/A,,Overcast,110,2013-09-01 10:56:00
3:16 AM,50.0,46.4,87,29.83,10.0,Calm,Calm,-,N/A,,Overcast,0,2013-09-01 11:16:00
3:36 AM,50.0,46.4,87,29.82,10.0,Calm,Calm,-,N/A,,Overcast,0,2013-09-01 11:36:00
3:56 AM,50.0,46.4,87,29.82,10.0,Calm,Calm,-,N/A,,Overcast,0,2013-09-01 11:56:00
4:16 AM,51.8,44.6,76,29.82,10.0,South,4.6,-,N/A,,Overcast,180,2013-09-01 12:16:00
4:36 AM,51.8,44.6,76,29.82,10.0,South,3.5,-,N/A,,Overcast,180,2013-09-01 12:36:00
4:56 AM,51.8,44.6,76,29.82,10.0,South,3.5,-,N/A,,Overcast,170,2013-09-01 12:56:00
5:16 AM,51.8,44.6,76,29.82,10.0,South,3.5,-,N/A,,Overcast,170,2013-09-01 13:16:00
5:36 AM,51.8,44.6,76,29.81,10.0,South,3.5,-,N/A,,Overcast,170,2013-09-01 13:36:00
5:56 AM,51.8,44.6,76,29.81,10.0,Calm,Calm,-,N/A,,Overcast,0,2013-09-01 13:56:00
6:16 AM,50.0,44.6,82,29.81,10.0,Calm,Calm,-,N/A,,Overcast,0,2013-09-01 14:16:00
6:36 AM,48.2,44.6,87,29.81,10.0,Calm,Calm,-,N/A,,Mostly Cloudy,0,2013-09-01 14:36:00
6:56 AM,48.2,44.6,87,29.81,10.0,Calm,Calm,-,N/A,,Mostly Cloudy,0,2013-09-01 14:56:00
7:16 AM,46.4,44.6,93,29.81,10.0,Calm,Calm,-,N/A,,Mostly Cloudy,0,2013-09-01 15:16:00
7:36 AM,46.4,44.6,93,29.80,10.0,Calm,Calm,-,N/A,,Mostly Cloudy,0,2013-09-01 15:36:00
7:56 AM,46.4,44.6,93,29.80,10.0,Calm,Calm,-,N/A,,Overcast,0,2013-09-01 15:56:00
8:16 AM,48.2,44.6,87,29.80,10.0,Calm,Calm,-,N/A,,Overcast,0,2013-09-01 16:16:00
8:36 AM,48.2,44.6,87,29.79,10.0,East,3.5,-,N/A,,Mostly Cloudy,90,2013-09-01 16:36:00
8:56 AM,50.0,46.4,87,29.80,10.0,Calm,Calm,-,N/A,,Mostly Cloudy,0,2013-09-01 16:56:00
9:16 AM,51.8,46.4,82,29.80,10.0,Calm,Calm,-,N/A,,Overcast,0,2013-09-01 17:16:00
9:36 AM,51.8,46.4,82,29.79,10.0,Calm,Calm,-,N/A,,Overcast,0,2013-09-01 17:36:00
9:56 AM,53.6,46.4,77,29.80,10.0,Calm,Calm,-,N/A,,Mostly Cloudy,0,2013-09-01 17:56:00
10:16 AM,53.6,46.4,77,29.81,10.0,WSW,4.6,-,N/A,,Mostly Cloudy,240,2013-09-01 18:16:00
10:36 AM,53.6,46.4,77,29.80,10.0,Calm,Calm,-,N/A,,Mostly Cloudy,0,2013-09-01 18:36:00
10:56 AM,55.4,46.4,72,29.80,10.0,WSW,8.1,-,N/A,,Mostly Cloudy,240,2013-09-01 18:56:00
11:16 AM,55.4,48.2,77,29.81,10.0,SW,9.2,-,N/A,,Mostly Cloudy,220,2013-09-01 19:16:00
11:36 AM,55.4,46.4,72,29.81,10.0,West,9.2,-,N/A,,Overcast,260,2013-09-01 19:36:00
11:56 AM,55.4,46.4,72,29.81,10.0,West,8.1,-,N/A,,Overcast,260,2013-09-01 19:56:00
12:16 PM,55.4,48.2,77,29.81,10.0,West,5.8,-,N/A,,Overcast,260,2013-09-01 20:16:00
12:36 PM,55.4,48.2,77,29.81,10.0,SW,6.9,-,N/A,,Overcast,220,2013-09-01 20:36:00
12:56 PM,55.4,48.2,77,29.81,10.0,WSW,6.9,-,N/A,,Overcast,250,2013-09-01 20:56:00
1:16 PM,55.4,48.2,77,29.81,10.0,WSW,5.8,-,N/A,,Mostly Cloudy,250,2013-09-01 21:16:00
1:36 PM,55.4,48.2,77,29.81,10.0,SW,6.9,-,N/A,,Overcast,230,2013-09-01 21:36:00
1:56 PM,55.4,48.2,77,29.81,10.0,WSW,5.8,-,N/A,,Overcast,250,2013-09-01 21:56:00
2:16 PM,55.4,48.2,77,29.80,10.0,WSW,5.8,-,N/A,,Overcast,250,2013-09-01 22:16:00
2:36 PM,55.4,50.0,82,29.80,10.0,WSW,5.8,-,N/A,,Overcast,240,2013-09-01 22:36:00
2:56 PM,55.4,50.0,82,29.80,10.0,West,5.8,-,N/A,,Overcast,280,2013-09-01 22:56:00
3:16 PM,55.4,51.8,88,29.79,10.0,West,6.9,-,N/A,,Overcast,270,2013-09-01 23:16:00
3:36 PM,55.4,48.2,77,29.79,10.0,SW,6.9,-,N/A,,Overcast,230,2013-09-01 23:36:00
3:56 PM,55.4,48.2,77,29.78,10.0,WSW,6.9,-,N/A,,Overcast,250,2013-09-01 23:56:00
4:16 PM,55.4,48.2,77,29.77,10.0,West,5.8,-,N/A,,Overcast,270,2013-09-02 00:16:00
4:36 PM,55.4,48.2,77,29.77,10.0,West,6.9,-,N/A,,Overcast,280,2013-09-02 00:36:00
4:56 PM,55.4,48.2,77,29.77,10.0,West,5.8,-,N/A,,Overcast,260,2013-09-02 00:56:00
5:16 PM,55.4,48.2,77,29.76,10.0,West,3.5,-,N/A,,Overcast,260,2013-09-02 01:16:00
5:36 PM,55.4,48.2,77,29.76,10.0,NW,4.6,-,N/A,,Overcast,310,2013-09-02 01:36:00
5:56 PM,55.4,48.2,77,29.75,10.0,Calm,Calm,-,N/A,,Overcast,0,2013-09-02 01:56:00
6:16 PM,55.4,48.2,77,29.75,10.0,NW,4.6,-,N/A,,Overcast,320,2013-09-02 02:16:00
6:36 PM,55.4,48.2,77,29.75,10.0,NNW,3.5,-,N/A,,Overcast,330,2013-09-02 02:36:00
6:56 PM,55.4,48.2,77,29.74,10.0,Calm,Calm,-,N/A,,Overcast,0,2013-09-02 02:56:00
7:16 PM,55.4,48.2,77,29.74,10.0,WNW,3.5,-,N/A,,Overcast,300,2013-09-02 03:16:00
7:36 PM,55.4,48.2,77,29.75,5.0,West,5.8,-,N/A,,Overcast,270,2013-09-02 03:36:00
7:56 PM,53.6,48.2,82,29.74,8.0,NW,4.6,-,N/A,,Overcast,310,2013-09-02 03:56:00
8:16 PM,53.6,48.2,82,29.74,10.0,Calm,Calm,-,N/A,,Overcast,0,2013-09-02 04:16:00
8:36 PM,53.6,48.2,82,29.73,10.0,Calm,Calm,-,N/A,,Overcast,0,2013-09-02 04:36:00
8:56 PM,53.6,48.2,82,29.72,10.0,Calm,Calm,-,N/A,,Overcast,0,2013-09-02 04:56:00
9:16 PM,53.6,48.2,82,29.72,10.0,Calm,Calm,-,N/A,,Overcast,0,2013-09-02 05:16:00
9:36 PM,53.6,48.2,82,29.71,10.0,Calm,Calm,-,N/A,,Overcast,0,2013-09-02 05:36:00
9:56 PM,53.6,48.2,82,29.71,10.0,Calm,Calm,-,N/A,,Overcast,0,2013-09-02 05:56:00
10:16 PM,53.6,48.2,82,29.71,10.0,Calm,Calm,-,N/A,,Overcast,0,2013-09-02 06:16:00
10:36 PM,53.6,48.2,82,29.71,10.0,West,4.6,-,N/A,,Overcast,270,2013-09-02 06:36:00
10:56 PM,53.6,48.2,82,29.71,10.0,WNW,5.8,-,N/A,,Overcast,290,2013-09-02 06:56:00
11:16 PM,53.6,48.2,82,29.71,10.0,West,4.6,-,N/A,,Overcast,280,2013-09-02 07:16:00
11:36 PM,53.6,48.2,82,29.71,10.0,Calm,Calm,-,N/A,,Overcast,0,2013-09-02 07:36:00
11:56 PM,51.8,48.2,88,29.71,10.0,Calm,Calm,-,N/A,,Overcast,0,2013-09-02 07:56:00